CAPE
490 721 907 1181 1316 1641 1641 1741 1678 1685 1873 1887 1645 1679 1681 1595 1534 1636 2275 2880 2888 2550 2309 2148 2028 1512 291 272 94 68 83 88 115 6 17 51 42 126 301 53 174 222 116
1353 1671 1253 1312 1492 1579 1790 1823 1866 2126 2309 2192 2050 1830 1820 1833 2365 3135 2873 2408 2247 2202 2242 2337 2228 1381 690 373 180 206 138 128 50 2 11 3 32 151 182 170 213 140 191
1247 1096 1381 1658 1925 2357 2266 2054 2231 2487 2591 2389 2146 2204 2660 3023 2554 2219 2113 1978 1987 2019 2129 2493 2432 1764 1140 896 361 163 232 123 7 1 10 5 5 84 128 174 238 169 99
1023 1238 1587 1681 1861 2020 2259 2425 2630 2904 2786 2461 2751 2415 2069 1827 1727 1872 1961 2077 2268 2336 2319 1935 2020 1838 1315 1291 480 126 230 51 0 4 14 0 27 49 63 71 94 87 92
1480 1406 1953 2037 2180 2328 2574 2671 2944 3030 2942 2274 1785 1767 1784 1750 1001 1049 1227 1167 1493 1385 1387 1755 1530 1188 1420 894 376 133 67 91 8 0 7 6 0 16 62 75 94 130 113
1586 1774 2131 2509 2603 2801 2829 3064 2906 1981 1620 1580 1708 1591 1113 1061 1030 1164 1089 916 1598 1613 1347 1224 694 805 864 704 427 136 86 56 13 0 0 0 19 8 35 42 41 89 75
1825 2023 2448 2834 3064 3060 2862 2594 2405 1832 1933 1622 881 624 649 804 1219 1126 862 1364 743 578 386 279 439 589 724 545 231 146 48 52 2 0 0 1 11 0 7 10 15 46 26
2399 2502 2799 2919 2851 2687 2600 2363 2104 1974 1636 914 564 264 519 893 1101 1065 966 950 840 574 172 40 166 510 511 311 323 115 100 20 0 0 0 0 1 1 0 3 10 13 15
2535 2589 2672 2668 2513 2399 2268 2171 1869 1402 1186 873 435 109 187 368 557 642 762 390 334 609 294 25 114 226 158 44 195 98 81 10 0 0 0 0 0 0 0 4 1 6 9
2460 2541 2471 2433 2289 2160 2069 1763 1606 1466 1125 572 16 0 24 76 166 327 594 426 171 142 310 40 23 33 391 188 119 47 64 12 0 0 0 0 0 0 0 3 45 0 4
2261 2211 2153 2044 2018 1979 1886 1803 1661 1252 679 115 1 0 0 0 0 26 144 292 256 184 136 22 35 115 121 57 34 32 32 0 0 0 0 0 0 0 0 1 12 51 61
1960 1849 1896 1935 1928 1870 1643 1315 976 520 240 4 5 0 0 0 0 0 0 0 0 51 27 47 44 128 39 29 38 19 1 0 1 1 0 0 0 2 4 6 29 39 58
1437 1464 1490 1432 1248 1061 865 677 241 117 13 12 2 0 0 0 0 0 0 0 0 26 26 47 63 66 37 51 22 17 0 0 0 0 0 0 0 0 3 19 28 55 40
1199 1239 1149 1099 892 665 530 45 0 0 1 0 0 0 0 0 0 0 0 0 0 0 1 85 153 68 48 52 38 28 0 0 0 0 0 12 4 0 0 7 26 38 47
632 663 753 634 457 145 33 14 0 0 0 0 0 0 0 0 0 0 0 1 0 0 1 54 165 333 144 54 18 0 0 0 0 0 1 23 29 14 18 2 10 25 29
523 352 309 308 137 25 27 10 0 0 0 0 0 0 0 0 0 1 0 2 2 1 1 16 2 100 722 567 203 144 61 56 68 0 0 0 5 22 38 35 12 5 46
764 298 79 0 1 1 29 17 2 0 0 0 0 0 0 0 0 0 1 0 0 0 0 3 4 8 12 444 748 440 403 196 123 30 3 1 0 30 32 36 29 6 30
645 224 58 61 3 0 3 30 32 36 15 0 0 0 0 0 0 0 0 0 0 0 0 0 1 3 3 5 152 869 858 419 403 130 19 1 8 2 21 21 7 8 25
298 184 8 0 0 0 0 0 0 0 0 0 0 0 0 0 0 0 0 0 0 0 0 0 0 1 0 1 14 74 547 683 662 174 98 50 1 0 7 20 21 6 2
172 77 0 0 0 0 5 9 4 1 0 0 0 0 0 0 0 0 0 0 0 0 0 0 0 0 0 0 0 3 32 218 449 240 106 207 190 0 0 9 7 25 21
0 0 0 2 0 1 0 2 0 0 0 0 0 0 0 0 0 0 0 0 0 0 0 0 0 0 0 0 0 0 0 19 129 422 353 200 142 275 172 17 10 31 5
3 0 0 1 1 2 0 0 0 0 0 0 0 0 0 0 0 0 0 0 0 0 0 0 0 0 0 0 0 0 0 0 3 4 97 62 75 59 287 175 60 32 18
2 3 2 0 0 0 0 0 0 0 0 0 0 0 0 0 0 0 0 0 0 0 0 0 0 0 0 0 0 0 0 0 0 1 10 26 44 111 92 125 133 111 88
0 0 0 0 0 0 0 0 0 0 0 0 0 0 0 0 0 0 0 0 0 0 0 0 0 0 0 0 0 0 0 0 0 2 0 9 278 194 87 68 79 82 118
0 0 0 0 0 0 0 0 0 0 0 0 0 0 0 0 0 0 0 0 0 0 0 0 0 0 0 0 0 0 0 0 0 0 0 0 1 107 20 102 83 57 110
0 0 0 0 0 0 0 0 0 0 0 0 0 0 0 0 0 0 0 0 0 0 0 0 0 0 0 0 0 0 0 0 0 0 0 0 0 0 49 183 145 120 114
CIN
-213 -155 -147 -128 -130 -118 -110 -96 -90 -79 -83 -64 -79 -68 -51 -44 -41 -41 -11 -1 -0 -6 -22 -9 -12 -13 -69 -17 -18 -6 -6 -0 -0 -0 -0 -0 -1 -0 -0 -16 -2 -0 -2
-181 -169 -193 -176 -163 -142 -138 -118 -98 -74 -54 -58 -53 -61 -55 -45 -18 -0 -2 -4 -6 -4 -2 -0 -0 -21 -46 -42 -30 -0 -0 -0 -1 -0 -0 -0 -0 -0 -0 -4 -7 -0 -0
-240 -252 -229 -218 -195 -157 -150 -138 -108 -72 -48 -47 -50 -40 -11 -0 -5 -9 -10 -16 -4 -1 -0 -0 -0 -4 -27 -16 -20 -49 -0 -0 -10 -0 -0 -0 -0 -0 -0 -0 -0 -15 -0
-277 -242 -206 -223 -218 -193 -164 -139 -107 -64 -63 -67 -23 -27 -41 -34 -21 -14 -5 -0 -0 -0 -0 -0 -0 -0 -14 -6 -24 -34 -7 -0 -0 -0 -0 -0 -0 -1 -3 -1 -0 -0 -0
-298 -237 -208 -190 -189 -173 -154 -131 -84 -50 -63 -83 -89 -70 -49 -30 -78 -85 -60 -57 -25 -18 -5 -0 -3 -21 -3 -16 -38 -34 -0 -0 -0 -0 -0 -0 -0 -9 -5 -0 -0 -0 -0
-325 -259 -215 -195 -176 -155 -141 -99 -86 -135 -83 -134 -85 -81 -128 -115 -105 -79 -72 -90 -8 -3 -17 -18 -77 -35 -13 -5 -25 -46 -0 -0 -4 -0 -0 -0 -0 -0 -0 -13 -6 -0 -0
-326 -269 -226 -178 -151 -146 -139 -129 -112 -136 -105 -100 -111 -143 -192 -147 -84 -77 -84 -39 -103 -118 -156 -169 -103 -52 -4 -8 -20 -32 -54 -0 -5 -0 -0 -0 -0 -0 -0 -1 -0 -0 -0
-303 -262 -207 -175 -155 -147 -130 -117 -106 -97 -101 -30 -58 -185 -199 -131 -94 -85 -79 -84 -89 -120 -209 -324 -163 -53 -27 -31 -10 -32 -20 -11 -7 -0 -0 -0 -0 -0 -0 -1 -3 -0 -0
-321 -275 -210 -168 -151 -129 -105 -92 -102 -54 -20 -4 -54 -363 -287 -204 -143 -132 -84 -108 -166 -97 -147 -238 -175 -105 -87 -126 -31 -45 -16 -11 -0 -0 -0 -0 -0 -0 -0 -1 -0 -0 -0
-312 -261 -221 -173 -140 -106 -84 -82 -35 -16 -4 -39 -108 -0 -389 -313 -270 -167 -109 -93 -174 -152 -133 -273 -220 -160 -32 -29 -29 -12 -6 -0 -0 -0 -0 -0 -0 -0 -0 -0 -0 -0 -0
-282 -254 -231 -185 -116 -71 -34 -17 -8 -12 -39 -173 -0 -0 -0 -0 -0 -202 -247 -138 -121 -114 -113 -170 -192 -139 -99 -62 -44 -15 -15 -0 -0 -0 -0 -0 -0 -0 -0 -0 -0 -0 -0
-238 -203 -167 -131 -93 -68 -40 -28 -43 -57 -215 -0 -0 -0 -0 -0 -0 -0 -0 -0 -0 -173 -149 -160 -151 -106 -125 -107 -72 -26 -2 -0 -2 -5 -0 -0 -0 -0 -0 -0 -0 -0 -0
-155 -150 -141 -117 -110 -110 -85 -55 -102 -215 -87 -0 -0 -0 -0 -0 -0 -0 -0 -0 -0 -204 -167 -133 -125 -108 -103 -83 -61 -62 -0 -2 -24 -0 -0 -0 -0 -0 -0 -0 -0 -0 -0
-113 -41 -85 -72 -81 -99 -95 -129 -0 -0 -0 -0 -0 -0 -0 -0 -0 -0 -0 -0 -0 -0 -11 -102 -66 -94 -71 -72 -58 -57 -0 -0 -0 -0 -0 -4 -2 -0 -0 -0 -0 -0 -0
-246 -16 -77 -87 -97 -106 -133 -132 -0 -0 -0 -0 -0 -0 -0 -0 -0 -0 -0 -0 -0 -0 -0 -47 -30 -5 -20 -29 -14 -0 -0 -0 -0 -0 -0 -27 -5 -4 -0 -4 -0 -0 -0
-37 -47 -33 -16 -55 -66 -71 -83 -0 -0 -0 -0 -0 -0 -0 -0 -0 -0 -0 -0 -2 -0 -0 -13 -0 -49 -0 -1 -3 -3 -9 -25 -46 -0 -0 -0 -60 -56 -10 -0 -7 -0 -0
-0 -31 -20 -0 -19 -17 -24 -48 -34 -0 -0 -0 -0 -0 -0 -0 -0 -0 -0 -0 -0 -0 -0 -0 -0 -2 -126 -0 -0 -0 -0 -0 -4 -44 -78 -2 -0 -104 -43 -15 -26 -5 -0
-1 -26 -52 -6 -2 -0 -10 -4 -7 -4 -12 -0 -0 -0 -0 -0 -0 -0 -0 -0 -0 -0 -0 -0 -1 -0 -8 -64 -70 -0 -0 -0 -2 -21 -7 -0 -76 -34 -56 -64 -23 -3 -0
-28 -12 -18 -0 -0 -0 -0 -0 -0 -0 -0 -0 -0 -0 -0 -0 -0 -0 -0 -0 -0 -0 -0 -0 -0 -0 -0 -0 -53 -124 -2 -0 -0 -23 -33 -24 -0 -0 -24 -22 -33 -28 -0
-29 -37 -0 -0 -0 -0 -2 -4 -1 -1 -0 -0 -0 -0 -0 -0 -0 -0 -0 -0 -0 -0 -0 -0 -0 -0 -0 -0 -0 -0 -175 -48 -3 -5 -48 -2 -2 -0 -0 -17 -0 -35 -15
-0 -0 -0 -1 -0 -0 -0 -4 -0 -0 -0 -0 -0 -0 -0 -0 -0 -0 -0 -0 -0 -0 -0 -0 -0 -0 -0 -0 -0 -0 -0 -54 -107 -1 -4 -15 -3 -0 -0 -4 -34 -0 -0
-0 -0 -0 -0 -0 -0 -0 -0 -0 -0 -0 -0 -0 -0 -0 -0 -0 -0 -0 -0 -0 -0 -0 -0 -0 -0 -0 -0 -0 -0 -0 -0 -0 -106 -71 -84 -49 -12 -1 -0 -15 -5 -9
-0 -0 -0 -0 -0 -0 -0 -0 -0 -0 -0 -0 -0 -0 -0 -0 -0 -0 -0 -0 -0 -0 -0 -0 -0 -0 -0 -0 -0 -0 -0 -0 -0 -0 -8 -70 -76 -9 -2 -1 -0 -7 -0
-0 -0 -0 -0 -0 -0 -0 -0 -0 -0 -0 -0 -0 -0 -0 -0 -0 -0 -0 -0 -0 -0 -0 -0 -0 -0 -0 -0 -0 -0 -0 -0 -0 -0 -0 -3 -2 -9 -16 -8 -2 -0 -0
-0 -0 -0 -0 -0 -0 -0 -0 -0 -0 -0 -0 -0 -0 -0 -0 -0 -0 -0 -0 -0 -0 -0 -0 -0 -0 -0 -0 -0 -0 -0 -0 -0 -0 -0 -0 -1 -16 -52 -8 -4 -18 -7
-0 -0 -0 -0 -0 -0 -0 -0 -0 -0 -0 -0 -0 -0 -0 -0 -0 -0 -0 -0 -0 -0 -0 -0 -0 -0 -0 -0 -0 -0 -0 -0 -0 -0 -0 -0 -0 -0 -60 -1 -0 -1 -0
Wind_Speed
9 8 6 6 5 3 9 15 13 13 13 13 13 12 13 14 16 17 18 15 19 22 24 30 29 33 35 33 nan nan nan nan 40 nan nan nan nan 44 26 nan 8 12 10
13 12 11 9 10 10 10 9 13 12 13 12 11 12 13 14 15 16 15 17 17 18 20 25 24 30 36 35 34 39 40 35 nan nan nan nan nan 39 27 18 14 8 7
13 15 12 10 10 9 8 9 11 13 13 11 12 12 12 12 13 16 16 16 17 20 22 23 22 27 34 36 35 36 37 35 nan nan nan nan nan nan 28 17 15 9 nan
13 15 13 11 10 8 9 12 14 15 14 11 11 11 12 13 15 16 16 18 20 21 23 25 25 27 32 33 32 34 36 nan nan nan nan nan nan nan nan nan nan nan nan
12 13 12 10 9 10 11 11 14 16 13 14 13 13 12 14 17 15 20 21 22 21 21 25 28 27 29 34 34 37 nan nan nan nan nan nan nan nan nan nan nan 14 13
10 11 11 11 12 12 13 15 15 12 18 18 16 15 17 16 13 16 21 24 24 24 24 26 31 31 37 40 39 41 nan nan nan nan nan nan nan nan nan nan nan nan nan
8 11 14 16 17 18 20 21 21 19 22 22 23 24 22 19 12 18 26 27 28 29 28 29 32 34 38 41 43 37 nan nan nan nan nan nan nan nan nan nan nan nan nan
15 17 20 22 22 22 23 24 25 25 24 25 27 27 26 22 16 19 24 33 31 31 29 nan 32 34 33 42 42 34 26 nan nan nan nan nan nan nan nan nan nan nan nan
23 21 21 24 27 26 26 27 27 28 27 28 29 30 30 29 24 26 28 32 31 32 31 nan 34 35 34 nan 41 nan nan nan nan nan nan nan nan nan nan nan nan nan nan
30 28 26 27 29 30 28 29 30 30 31 31 nan nan nan nan 31 32 30 34 32 31 33 nan nan nan 39 37 38 nan nan nan nan nan nan nan nan nan nan nan nan nan nan
36 35 32 29 29 31 31 29 31 33 35 35 nan nan nan nan nan nan 31 35 32 32 30 nan nan 36 38 nan nan nan nan nan nan nan nan nan nan nan nan nan nan nan nan
43 41 38 36 33 32 35 34 34 37 39 nan nan nan nan nan nan nan nan nan nan nan nan nan nan 37 nan nan nan nan nan nan nan nan nan nan nan nan nan nan nan nan nan
50 48 45 43 42 41 40 38 39 38 nan nan nan nan nan nan nan nan nan nan nan nan nan nan nan nan nan nan nan nan nan nan nan nan nan nan nan nan nan nan nan nan nan
61 51 50 48 50 50 48 nan nan nan nan nan nan nan nan nan nan nan nan nan nan nan nan nan 29 nan nan nan nan nan nan nan nan nan nan nan nan nan nan nan nan nan nan
67 50 59 55 57 60 nan nan nan nan nan nan nan nan nan nan nan nan nan nan nan nan nan nan 25 24 24 nan nan nan nan nan nan nan nan nan nan nan nan nan nan nan nan
63 61 60 61 60 nan nan nan nan nan nan nan nan nan nan nan nan nan nan nan nan nan nan nan nan 26 26 28 26 26 nan nan nan nan nan nan nan nan nan nan nan nan nan
67 66 nan nan nan nan nan nan nan nan nan nan nan nan nan nan nan nan nan nan nan nan nan nan nan nan nan 24 24 21 19 20 22 nan nan nan nan nan nan nan nan nan nan
74 71 nan nan nan nan nan nan nan nan nan nan nan nan nan nan nan nan nan nan nan nan nan nan nan nan nan nan 23 19 21 20 23 19 nan nan nan nan nan nan nan nan nan
59 55 nan nan nan nan nan nan nan nan nan nan nan nan nan nan nan nan nan nan nan nan nan nan nan nan nan nan nan nan 22 19 20 19 nan nan nan nan nan nan nan nan nan
57 nan nan nan nan nan nan nan nan nan nan nan nan nan nan nan nan nan nan nan nan nan nan nan nan nan nan nan nan nan nan 20 20 18 19 21 22 nan nan nan nan nan nan
nan nan nan nan nan nan nan nan nan nan nan nan nan nan nan nan nan nan nan nan nan nan nan nan nan nan nan nan nan nan nan nan 21 21 20 19 22 23 18 nan nan nan nan
nan nan nan nan nan nan nan nan nan nan nan nan nan nan nan nan nan nan nan nan nan nan nan nan nan nan nan nan nan nan nan nan nan nan nan nan nan nan 23 21 nan nan nan
nan nan nan nan nan nan nan nan nan nan nan nan nan nan nan nan nan nan nan nan nan nan nan nan nan nan nan nan nan nan nan nan nan nan nan nan nan 21 nan 27 28 19 nan
nan nan nan nan nan nan nan nan nan nan nan nan nan nan nan nan nan nan nan nan nan nan nan nan nan nan nan nan nan nan nan nan nan nan nan nan 20 20 nan nan nan nan 17
nan nan nan nan nan nan nan nan nan nan nan nan nan nan nan nan nan nan nan nan nan nan nan nan nan nan nan nan nan nan nan nan nan nan nan nan nan 18 nan 24 nan nan 18
nan nan nan nan nan nan nan nan nan nan nan nan nan nan nan nan nan nan nan nan nan nan nan nan nan nan nan nan nan nan nan nan nan nan nan nan nan nan nan 23 22 22 24
Wind_Direction
327 322 306 309 307 296 331 334 334 341 339 346 348 358 1 352 3 355 340 334 343 341 343 342 351 352 350 350 nan nan nan nan 327 nan nan nan nan 349 358 nan 305 307 257
318 309 312 303 292 293 324 339 333 338 336 338 345 351 351 349 352 356 345 340 344 346 343 339 341 340 353 351 337 332 344 342 nan nan nan nan nan 358 13 28 30 34 201
322 327 325 331 313 320 317 329 343 335 332 339 348 1 356 346 346 344 345 344 342 348 351 348 343 335 344 347 347 345 345 345 nan nan nan nan nan nan 16 39 78 139 nan
337 340 340 343 351 345 333 335 332 333 328 335 347 343 342 339 349 341 341 336 340 341 340 341 346 338 339 345 346 347 346 nan nan nan nan nan nan nan nan nan nan nan nan
332 335 340 338 334 328 329 329 323 326 308 315 318 324 326 336 318 333 340 336 330 330 330 330 330 336 337 343 339 343 nan nan nan nan nan nan nan nan nan nan nan 93 125
333 337 317 308 308 308 305 304 301 282 280 296 299 299 294 314 323 335 334 330 326 321 323 322 321 325 337 337 335 339 nan nan nan nan nan nan nan nan nan nan nan nan nan
313 308 307 302 296 295 297 296 293 284 283 286 288 289 297 307 318 341 333 323 319 320 316 317 320 319 324 329 328 329 nan nan nan nan nan nan nan nan nan nan nan nan nan
281 291 293 292 291 292 294 290 285 285 289 289 289 293 294 298 293 308 323 318 318 314 315 nan 314 312 315 321 331 336 340 nan nan nan nan nan nan nan nan nan nan nan nan
280 286 286 284 290 289 290 288 286 285 285 284 288 291 291 288 279 287 304 314 315 314 314 nan 310 308 311 nan 320 nan nan nan nan nan nan nan nan nan nan nan nan nan nan
279 280 278 285 289 293 294 291 287 285 285 284 nan nan nan nan 278 281 293 312 312 314 309 nan nan nan 305 303 312 nan nan nan nan nan nan nan nan nan nan nan nan nan nan
276 278 279 284 290 291 290 290 287 288 286 285 nan nan nan nan nan nan 283 304 311 310 306 nan nan 305 301 nan nan nan nan nan nan nan nan nan nan nan nan nan nan nan nan
277 274 275 278 277 279 285 284 286 288 286 nan nan nan nan nan nan nan nan nan nan nan nan nan nan 304 nan nan nan nan nan nan nan nan nan nan nan nan nan nan nan nan nan
267 267 272 273 271 270 274 277 277 279 nan nan nan nan nan nan nan nan nan nan nan nan nan nan nan nan nan nan nan nan nan nan nan nan nan nan nan nan nan nan nan nan nan
262 254 266 267 269 270 272 nan nan nan nan nan nan nan nan nan nan nan nan nan nan nan nan nan 304 nan nan nan nan nan nan nan nan nan nan nan nan nan nan nan nan nan nan
264 261 264 265 265 267 nan nan nan nan nan nan nan nan nan nan nan nan nan nan nan nan nan nan 293 298 310 nan nan nan nan nan nan nan nan nan nan nan nan nan nan nan nan
267 265 261 261 262 nan nan nan nan nan nan nan nan nan nan nan nan nan nan nan nan nan nan nan nan 288 300 306 308 305 nan nan nan nan nan nan nan nan nan nan nan nan nan
264 268 nan nan nan nan nan nan nan nan nan nan nan nan nan nan nan nan nan nan nan nan nan nan nan nan nan 287 298 295 302 310 312 nan nan nan nan nan nan nan nan nan nan
266 268 nan nan nan nan nan nan nan nan nan nan nan nan nan nan nan nan nan nan nan nan nan nan nan nan nan nan 280 285 300 302 306 310 nan nan nan nan nan nan nan nan nan
266 267 nan nan nan nan nan nan nan nan nan nan nan nan nan nan nan nan nan nan nan nan nan nan nan nan nan nan nan nan 277 287 306 312 nan nan nan nan nan nan nan nan nan
258 nan nan nan nan nan nan nan nan nan nan nan nan nan nan nan nan nan nan nan nan nan nan nan nan nan nan nan nan nan nan 275 274 293 304 292 292 nan nan nan nan nan nan
nan nan nan nan nan nan nan nan nan nan nan nan nan nan nan nan nan nan nan nan nan nan nan nan nan nan nan nan nan nan nan nan 273 271 265 276 287 277 282 nan nan nan nan
nan nan nan nan nan nan nan nan nan nan nan nan nan nan nan nan nan nan nan nan nan nan nan nan nan nan nan nan nan nan nan nan nan nan nan nan nan nan 271 279 nan nan nan
nan nan nan nan nan nan nan nan nan nan nan nan nan nan nan nan nan nan nan nan nan nan nan nan nan nan nan nan nan nan nan nan nan nan nan nan nan 261 nan 268 270 288 nan
nan nan nan nan nan nan nan nan nan nan nan nan nan nan nan nan nan nan nan nan nan nan nan nan nan nan nan nan nan nan nan nan nan nan nan nan 260 259 nan nan nan nan 290
nan nan nan nan nan nan nan nan nan nan nan nan nan nan nan nan nan nan nan nan nan nan nan nan nan nan nan nan nan nan nan nan nan nan nan nan nan 259 nan 259 nan nan 263
nan nan nan nan nan nan nan nan nan nan nan nan nan nan nan nan nan nan nan nan nan nan nan nan nan nan nan nan nan nan nan nan nan nan nan nan nan nan nan 253 245 249 262